#timestamp,LO_Frequency,Hit,StdDev 
1641700815.4,286046995.6,N
1641700835.2,286046995.5,N
1641700855.1,286046995.1,N
1641700856.0,286046995.1,N
1641700875.8,286046995.5,N
1641700895.6,286046995.8,N
1641700915.5,286046993.9,Y
1641700935.3,286046999.3,P
1641700955.2,286046999.0,N
1641700975.0,286046998.1,N
1641700975.9,286046998.1,N
1641700995.7,286047000.3,N
1641701015.6,286046999.8,N
1641701035.4,286047001.0,N
1641701055.3,286047001.2,N
1641701075.1,286046998.4,N
1641701076.0,286046998.4,N
1641701095.8,286046999.2,N
1641701115.7,286046999.6,N
1641701135.5,286046998.7,N
1641701155.3,286046999.4,N
1641701175.2,286047000.9,N
1641701195.0,286046999.3,N
1641701195.9,286046999.3,N
1641701215.8,286046999.0,N
1641701235.6,286046999.1,N
1641701255.4,286046997.4,N
1641701275.3,286046998.0,N
1641701295.1,286046995.9,Y
1641701315.9,286046995.2,P
1641701335.7,286046995.6,N
1641701355.5,286046997.4,N
1641701375.4,286046995.2,Y
1641701395.2,286047001.2,P
1641701415.1,286047001.1,N
1641701416.0,286047001.1,N
1641701435.8,286046998.6,N
1641701455.6,286047001.1,N
1641701475.5,286046998.8,N
1641701495.3,286046998.4,N
1641701515.2,286046998.7,N
1641701535.9,286046996.9,N
1641701555.7,286046999.0,N
1641701575.6,286046998.8,N
1641701595.4,286046999.0,N
1641701615.2,286046997.4,N
1641701635.1,286046997.5,N
1641701636.0,286046997.5,N
1641701655.8,286046997.2,N
1641701675.7,286046996.9,N
1641701695.5,286046998.7,N
1641701715.3,286046999.6,N
1641701735.2,286046996.5,N
1641701755.0,286046996.6,N
1641701755.9,286046996.6,N
1641701775.8,286046997.5,N
1641701795.6,286046997.4,N
1641701815.4,286046997.3,N
1641701835.3,286046996.6,N
1641701855.1,286046997.0,N
1641701875.8,286046994.9,Y
1641701895.7,286046999.3,P
1641701915.5,286046998.7,N
1641701935.4,286046996.5,P
1641701955.2,286046996.7,Y
1641701975.0,286047000.6,P
1641701975.9,286047000.6,N
1641701995.8,286047001.2,N
1641702015.6,286047001.0,N
1641702035.4,286047002.3,N
1641702055.3,286047002.1,N
1641702075.1,286047002.4,N
1641702095.9,286047000.6,N
1641702115.7,286046999.8,N
1641702135.5,286046999.9,N
1641702155.4,286047000.8,N
1641702175.2,286046998.2,N
1641702195.0,286046998.2,N
1641702196.0,286046998.2,N
1641702215.8,286046997.0,N
1641702235.6,286046999.2,N
1641702255.5,286046998.4,N
1641702275.3,286047000.8,N
1641702295.1,286047000.9,N
1641702315.9,286047000.6,N
1641702335.7,286047001.2,N
1641702355.5,286047000.5,N
1641702375.4,286047001.1,N
1641702395.2,286047001.2,N
1641702415.1,286046998.2,N
1641702416.0,286046998.2,N
1641702435.8,286046998.3,N
1641702455.6,286047000.7,N
1641702475.5,286047000.0,N
1641702495.3,286046999.8,N
1641702515.2,286047001.1,N
1641702535.9,286047001.1,N
1641702555.7,286047000.4,N
1641702575.6,286047000.0,N
1641702595.4,286046999.9,N
1641702615.2,286047000.9,N
1641702635.1,286046999.5,N
1641702636.0,286046999.5,N
1641702655.8,286046998.4,N
1641702675.7,286046998.1,N
1641702695.5,286046998.3,N
1641702715.3,286046999.1,N
1641702735.2,286046997.1,N
1641702755.9,286046999.4,N
1641702775.7,286046998.7,N
1641702795.6,286046998.4,N
1641702815.4,286046999.0,N
1641702835.2,286046998.5,N
1641702855.1,286047000.8,N
1641702856.0,286047000.8,N
1641702875.8,286046998.5,N
1641702895.7,286047001.1,N
1641702915.5,286046998.6,N
1641702935.3,286047001.1,N
1641702955.2,286047000.9,N
1641702975.0,286047000.7,N
1641702975.9,286047000.7,N
1641702995.8,286047000.8,N
1641703015.6,286047000.8,N
1641703035.4,286047000.0,N
1641703055.3,286047001.9,N
1641703075.1,286047002.2,N
1641703095.9,286047000.2,N
1641703115.7,286047002.5,N
1641703135.5,286047002.0,N
1641703155.4,286047002.2,N
1641703175.2,286047000.2,N
1641703195.0,286047000.9,N
1641703195.9,286047000.9,N
1641703215.8,286047000.7,N
1641703235.6,286047000.4,N
1641703255.5,286047002.5,N
1641703275.3,286047000.1,N
1641703295.1,286047000.9,N
1641703315.9,286047000.6,N
1641703335.7,286047000.2,N
1641703355.5,286047000.1,N
1641703375.4,286047002.3,N
1641703395.2,286047002.0,N
1641703415.1,286047003.7,Y
1641703416.0,286047003.7,P
1641703435.8,286047003.9,N
1641703455.6,286047004.1,N
1641703475.5,286047004.2,Y
1641703495.3,286046999.0,P
1641703515.2,286046998.8,N
1641703535.9,286046999.3,N
1641703555.7,286046999.5,N
1641703575.6,286046996.9,N
1641703625.4,286046999.1,E
1641703635.3,286046998.5,N
1641703655.2,286047000.4,P
1641703675.0,286047000.6,N
1641703675.9,286047000.6,N
1641703695.8,286047000.4,N
1641703715.6,286046999.8,N
1641703735.4,286047002.2,N
1641703755.3,286047004.1,Y
1641703775.1,286047001.7,P
1641703795.8,286047001.6,N
1641703815.7,286047002.2,P
1641703835.5,286047002.7,Y
1641703855.4,286047002.4,P
1641703875.2,286047002.0,P
1641703895.0,286047002.2,P
1641703896.0,286047002.2,Y
1641703915.8,286047000.9,P
1641703935.6,286046998.6,N
1641703955.5,286046999.4,N
1641703975.3,286046998.9,N
1641703995.1,286047001.2,N
1641704015.9,286046998.7,N
1641704035.7,286046998.2,N
1641704055.6,286046998.7,N
1641704075.4,286046998.8,N
1641704095.2,286046999.3,N
1641704115.1,286046998.9,N
1641704116.0,286046998.9,N
1641704135.8,286046999.5,N
1641704155.6,286046996.5,Y
1641704175.5,286046998.1,P
1641704195.3,286047000.6,N
1641704215.2,286046998.5,N
1641704235.9,286046998.3,N
1641704255.7,286047000.0,N
1641704275.6,286046999.8,N
1641704295.4,286047000.2,N
1641704315.2,286047001.1,N
1641704335.1,286046998.3,N
1641704336.0,286046998.3,N
1641704355.8,286047000.8,N
1641704375.7,286047000.2,N
1641704395.5,286047002.7,N
